This is the latest recevied weather packets stored in our database for station/object N4QD-13. If no packets are shown the sender has not sent any weather packets the latest 10 day(s).
| Time | Temp. | Humidity | Pressure | Rain* | Wind** | Luminosity | Snow |
|---|---|---|---|---|---|---|---|
| 1777470633 | 15.56° C | 96% | 1014.5 hPa | 0 mm | - | 106 W/m² | - |
| 1777470329 | 16.11° C | 95% | 1014.5 hPa | 0 mm | - | 101 W/m² | - |
| 1777470026 | 16.11° C | 94% | 1014.5 hPa | 0 mm | - | 104 W/m² | - |
| 1777469722 | 16.11° C | 94% | 1014.6 hPa | 0 mm | - | 251 W/m² | - |
| 1777469418 | 16.11° C | 95% | 1014.4 hPa | 0 mm | - | 425 W/m² | - |
| 1777469113 | 15.56° C | 97% | 1014.6 hPa | 0 mm | - | 265 W/m² | - |
| 1777468812 | 15° C | 97% | 1014.7 hPa | 0 mm | - | 132 W/m² | - |
| 1777468510 | 15° C | 98% | 1014.7 hPa | 0 mm | - | 111 W/m² | - |
| 1777468206 | 15.56° C | 97% | 1014.6 hPa | 0 mm | - | 78 W/m² | - |
| 1777467902 | 15.56° C | 97% | 1014.7 hPa | 0 mm | - | 76 W/m² | - |
| 1777467598 | 15° C | 98% | 1014.8 hPa | 0 mm | - | 108 W/m² | - |
| 1777467293 | 15° C | 97% | 1015.1 hPa | 0 mm | - | 62 W/m² | - |
| 1777466989 | 15.56° C | 98% | 1015.2 hPa | 0 mm | - | 91 W/m² | - |
| 1777466688 | 15.56° C | 98% | 1015.2 hPa | 0 mm | - | 78 W/m² | - |
| 1777466384 | 15° C | 99% | 1015.1 hPa | 0 mm | - | 111 W/m² | - |
| 1777466080 | 15.56° C | 99% | 1014.9 hPa | 0 mm | - | 124 W/m² | - |
| 1777465777 | 15° C | 99% | 1014.4 hPa | 0 mm | - | 125 W/m² | - |
| 1777465473 | 15° C | 99% | 1014.8 hPa | 0 mm | - | 90 W/m² | - |
| 1777465171 | 15° C | 99% | 1014.6 hPa | 0 mm | - | 71 W/m² | - |
| 1777464867 | 14.44° C | 99% | 1014.7 hPa | 0 mm | - | 70 W/m² | - |
| 1777464562 | 14.44° C | 99% | 1014.4 hPa | 0 mm | - | 62 W/m² | - |
| 1777464259 | 14.44° C | 99% | 1014.3 hPa | 0 mm | - | 63 W/m² | - |
| 1777463954 | 14.44° C | 99% | 1013.9 hPa | 0 mm | - | 64 W/m² | - |
| 1777463651 | 14.44° C | 99% | 1013.9 hPa | 0 mm | - | 69 W/m² | - |
| 1777463350 | 13.89° C | 99% | 1014.2 hPa | 0 mm | - | 52 W/m² | - |
* Rain latest hour (hover to see other rain measurements)
** Current wind speed in m/s (hover to see current wind gust speed)